TimeCDT,TemperatureF,Dew PointF,Humidity,Sea Level PressureIn,VisibilityMPH,Wind Direction,Wind SpeedMPH,Gust SpeedMPH,PrecipitationIn,Events,Conditions,WindDirDegrees,DateUTC
12:16 AM,50.0,48.2,94,29.93,0.5,ENE,5.8,-,N/A,,Partly Cloudy,70,2013-03-31 05:16:00
12:31 AM,50.0,48.2,94,29.94,0.5,ENE,3.5,-,N/A,,Overcast,60,2013-03-31 05:31:00
12:37 AM,50.0,48.2,94,29.94,0.2,ENE,4.6,-,N/A,Fog,Fog,60,2013-03-31 05:37:00
12:48 AM,50.0,48.2,94,29.93,0.2,NE,3.5,-,N/A,Fog,Fog,50,2013-03-31 05:48:00
12:53 AM,50.0,48.9,96,29.94,0.2,ENE,3.5,-,N/A,Fog,Fog,60,2013-03-31 05:53:00
1:53 AM,48.9,46.9,93,29.95,0.2,WNW,4.6,-,N/A,Fog,Fog,290,2013-03-31 06:53:00
2:22 AM,48.2,46.4,93,29.96,0.2,Calm,Calm,-,N/A,Fog,Fog,0,2013-03-31 07:22:00
2:38 AM,48.2,48.2,100,29.95,0.5,Calm,Calm,-,0.00,Fog,Light Drizzle,0,2013-03-31 07:38:00
2:45 AM,48.2,48.2,100,29.95,0.5,WNW,3.5,-,0.00,Fog,Light Drizzle,300,2013-03-31 07:45:00
2:53 AM,48.9,46.9,93,29.94,1.5,West,6.9,-,0.00,,Light Drizzle,280,2013-03-31 07:53:00
2:57 AM,48.2,46.4,93,29.95,2.0,West,6.9,-,0.00,,Light Drizzle,260,2013-03-31 07:57:00
3:08 AM,48.2,48.2,100,29.95,3.0,West,8.1,-,0.00,,Light Drizzle,260,2013-03-31 08:08:00
3:53 AM,48.9,48.0,97,29.94,5.0,WSW,4.6,-,0.00,,Overcast,250,2013-03-31 08:53:00
4:53 AM,48.9,45.0,86,29.94,7.0,West,5.8,-,N/A,,Mostly Cloudy,280,2013-03-31 09:53:00
5:53 AM,48.0,41.0,77,29.93,10.0,West,4.6,-,N/A,,Mostly Cloudy,280,2013-03-31 10:53:00
6:53 AM,46.9,39.9,77,29.95,10.0,WNW,3.5,-,N/A,,Scattered Clouds,300,2013-03-31 11:53:00
7:53 AM,43.0,39.9,89,29.97,10.0,SSW,4.6,-,N/A,,Partly Cloudy,200,2013-03-31 12:53:00
8:53 AM,52.0,41.0,66,29.95,10.0,WNW,5.8,-,N/A,,Clear,290,2013-03-31 13:53:00
9:53 AM,57.0,43.0,59,29.94,10.0,NW,6.9,-,N/A,,Clear,310,2013-03-31 14:53:00
10:53 AM,60.1,39.9,47,29.93,10.0,WNW,8.1,-,N/A,,Partly Cloudy,290,2013-03-31 15:53:00
11:53 AM,61.0,39.9,46,29.94,10.0,NW,13.8,21.9,N/A,,Scattered Clouds,310,2013-03-31 16:53:00
12:53 PM,61.0,42.1,50,29.95,10.0,NNW,12.7,25.3,N/A,,Scattered Clouds,330,2013-03-31 17:53:00
1:53 PM,63.0,37.9,40,29.94,10.0,North,11.5,20.7,N/A,,Scattered Clouds,350,2013-03-31 18:53:00
2:53 PM,63.0,33.1,33,29.95,10.0,NNW,18.4,24.2,N/A,,Partly Cloudy,330,2013-03-31 19:53:00
3:53 PM,62.1,30.9,31,29.94,10.0,NNW,18.4,23.0,N/A,,Partly Cloudy,340,2013-03-31 20:53:00
4:53 PM,62.1,24.1,23,29.94,10.0,NW,13.8,24.2,N/A,,Partly Cloudy,320,2013-03-31 21:53:00
5:53 PM,61.0,28.9,30,29.94,10.0,North,8.1,-,N/A,,Partly Cloudy,350,2013-03-31 22:53:00
6:53 PM,57.9,28.9,33,29.96,10.0,NNW,5.8,-,N/A,,Partly Cloudy,340,2013-03-31 23:53:00
7:53 PM,53.1,25.0,34,29.96,10.0,North,5.8,-,N/A,,Partly Cloudy,350,2013-04-01 00:53:00
8:53 PM,53.1,23.0,31,29.96,10.0,North,4.6,-,N/A,,Clear,350,2013-04-01 01:53:00
9:53 PM,52.0,23.0,32,29.96,10.0,Calm,Calm,-,N/A,,Clear,0,2013-04-01 02:53:00
10:53 PM,46.9,26.1,44,29.98,10.0,NNE,5.8,-,N/A,,Clear,20,2013-04-01 03:53:00
11:53 PM,45.0,28.9,53,29.99,10.0,NNE,11.5,-,N/A,,Mostly Cloudy,30,2013-04-01 04:53:00